This is the latest recevied weather packets stored in our database for station/object K1BWE-1. If no packets are shown the sender has not sent any weather packets the latest 10 day(s).
| Time | Temp. | Humidity | Pressure | Rain* | Wind** | Luminosity | Snow |
|---|---|---|---|---|---|---|---|
| 1778132283 | 15.56° C | 41% | 1017.1 hPa | 0 mm | - | 0 W/m² | - |
| 1778131981 | 15.56° C | 41% | 1017.1 hPa | 0 mm | - | 0 W/m² | - |
| 1778131679 | 16.11° C | 41% | 1017.2 hPa | 0 mm | - | 0 W/m² | - |
| 1778131375 | 16.11° C | 41% | 1017 hPa | 0 mm | - | 0 W/m² | - |
| 1778131073 | 16.11° C | 40% | 1017.3 hPa | 0 mm | - | 0 W/m² | - |
| 1778130770 | 16.67° C | 38% | 1017 hPa | 0 mm | - | 0 W/m² | - |
| 1778130467 | 16.67° C | 37% | 1016.8 hPa | 0 mm | - | 0 W/m² | - |
| 1778130163 | 16.67° C | 37% | 1017 hPa | 0 mm | - | 0 W/m² | - |
| 1778129860 | 16.67° C | 35% | 1017.2 hPa | 0 mm | - | 0 W/m² | - |
| 1778129556 | 17.22° C | 34% | 1017.1 hPa | 0 mm | - | 0 W/m² | - |
| 1778129254 | 17.22° C | 33% | 1016.8 hPa | 0 mm | - | 0 W/m² | - |
| 1778128950 | 17.78° C | 33% | 1017.1 hPa | 0 mm | - | 0 W/m² | - |
| 1778128646 | 17.78° C | 32% | 1017.1 hPa | 0 mm | - | 0 W/m² | - |
| 1778128343 | 17.78° C | 31% | 1016.8 hPa | 0 mm | - | 0 W/m² | - |
| 1778128040 | 18.33° C | 31% | 1016.7 hPa | 0 mm | - | 0 W/m² | - |
| 1778127735 | 18.33° C | 30% | 1016.8 hPa | 0 mm | - | 0 W/m² | - |
| 1778127433 | 18.89° C | 29% | 1016.6 hPa | 0 mm | - | 0 W/m² | - |
| 1778127129 | 18.89° C | 29% | 1017 hPa | 0 mm | - | 0 W/m² | - |
| 1778126826 | 18.33° C | 31% | 1016.6 hPa | 0 mm | - | 0 W/m² | - |
| 1778126522 | 18.89° C | 30% | 1016.8 hPa | 0 mm | - | 0 W/m² | - |
| 1778126218 | 18.89° C | 30% | 1016.7 hPa | 0 mm | - | 0 W/m² | - |
| 1778125914 | 20° C | 28% | 1016.5 hPa | 0 mm | - | 0 W/m² | - |
| 1778125611 | 20° C | 26% | 1016.6 hPa | 0 mm | - | 0 W/m² | - |
| 1778125308 | 19.44° C | 27% | 1016.4 hPa | 0 mm | - | 0 W/m² | - |
| 1778125007 | 19.44° C | 29% | 1016.4 hPa | 0 mm | - | 0 W/m² | - |
* Rain latest hour (hover to see other rain measurements)
** Current wind speed in m/s (hover to see current wind gust speed)